This demonstration page uses our WeatherBlox Daily Observations layout. Learn more.

Left ArrowRight Arrow

Hourly Observations for November 24, 2016

Temp ( °F °C ) Dew Point ( °F °C ) Humidity (%) Winds ( mph kmh ) Pressure ( in mb ) Visibility ( mi km ) Precip ( " mm )
12:53 am 00:53 Cloudy 57 13.9 47 8.3 69 69 Calm 30.16 1021 10 16 0.00 0.00
1:53 am 01:53 Mostly Cloudy 56 13.3 47 8.3 72 72 Calm 30.15 1021 10 16 0.00 0.00
2:53 am 02:53 Clear 54 12.2 47 8.3 77 77 S 3 6 30.16 1021 10 16 0.00 0.00
3:53 am 03:53 Partly Cloudy 52 11.1 47 8.3 83 83 Calm 30.16 1022 10 16 0.00 0.00
4:53 am 04:53 Partly Cloudy 51 10.6 46 7.8 83 83 Calm 30.18 1022 10 16 0.00 0.00
5:53 am 05:53 Mostly Cloudy 50 10 46 7.8 86 86 Calm 30.19 1022 10 16 0.00 0.00
6:53 am 06:53 Cloudy 50 10 46 7.8 86 86 Calm 30.20 1023 10 16 0.00 0.00
7:53 am 07:53 Cloudy 51 10.6 47 8.3 86 86 Calm 30.22 1023 10 16 0.00 0.00
8:53 am 08:53 Cloudy 55 12.8 48 8.9 77 77 Calm 30.23 1024 10 16 0.00 0.00
9:53 am 09:53 Cloudy 62 16.7 53 11.7 73 73 SW 8 13 30.24 1024 10 16 0.00 0.00
10:53 am 10:53 Mostly Cloudy 66 18.9 54 12.2 65 65 S 7 11 30.23 1024 10 16 0.00 0.00
11:53 am 11:53 Cloudy 69 20.6 55 12.8 61 61 SW 6 9 30.21 1023 10 16 0.00 0.00
12:53 pm 12:53 Mostly Cloudy 70 21.1 54 12.2 57 57 SSW 5 7 30.18 1022 10 16 0.00 0.00
1:53 pm 13:53 Mostly Cloudy 71 21.7 53 11.7 53 53 WSW 6 9 30.16 1021 10 16 0.00 0.00
2:53 pm 14:53 Mostly Sunny 74 23.3 52 11.1 46 46 WSW 7 11 30.14 1021 10 16 0.00 0.00
3:53 pm 15:53 Mostly Sunny 74 23.3 52 11.1 46 46 VRB 6 9 30.15 1021 10 16 0.00 0.00
4:53 pm 16:53 Mostly Sunny 73 22.8 52 11.1 48 48 SSW 7 11 30.16 1021 10 16 0.00 0.00
5:53 pm 17:53 Mostly Clear 68 20 52 11.1 57 57 Calm 30.16 1022 10 16 0.00 0.00
6:53 pm 18:53 Mostly Clear 61 16.1 51 10.6 70 70 Calm 30.19 1022 10 16 0.00 0.00
7:53 pm 19:53 Mostly Clear 59 15 51 10.6 75 75 Calm 30.19 1022 10 16 0.00 0.00
8:53 pm 20:53 Partly Cloudy 57 13.9 51 10.6 81 81 Calm 30.19 1023 10 16 0.00 0.00
9:53 pm 21:53 Partly Cloudy 55 12.8 51 10.6 87 87 Calm 30.20 1023 10 16 0.00 0.00
10:53 pm 22:53 Clear 54 12.2 50 10 87 87 Calm 30.20 1023 10 16 0.00 0.00
11:53 pm 23:53 Mostly Clear 54 12.2 50 10 87 87 Calm 30.20 1023 10 16 0.00 0.00

Powered by AerisWeather